CW9417 Weather Reports


Display with metric or nautical units.
time (UTC)temp
F
wind
direction
speed
MPH
gust
MPH
rain 1hr
in
rain 24hr
in
rain mn
in
humidity
%
barometer
mb
20260509051259 53 117 1.0 4.0 0.00 0.00 0.00 1 1019.8
20260509050759 52 83 1.0 4.0 0.00 0.00 0.00 1 1019.7
20260509050302 52 89 0.0 3.0 0.00 0.00 0.00 1 1019.7
20260509045759 52 77 0.0 2.0 0.00 0.00 0.00 1 1019.6
20260509045258 52 101 0.0 2.0 0.00 0.00 0.00 1 1019.6
20260509044801 51 101 0.0 2.0 0.00 0.00 0.00 1 1019.6
20260509044258 51 98 0.0 0.0 0.00 0.00 0.00 1 1019.5
20260509043759 51 99 0.0 0.0 0.00 0.00 0.00 1 1019.5
20260509043259 51 99 0.0 0.0 0.00 0.00 0.00 1 1019.5
20260509042758 51 97 0.0 0.0 0.00 0.00 0.00 1 1019.5
20260509042258 51 96 0.0 0.0 0.00 0.00 0.00 1 1019.5
20260509041758 51 96 0.0 0.0 0.00 0.00 0.00 1 1019.4
20260509041300 51 96 0.0 0.0 0.00 0.00 0.00 1 1019.5
20260509041025 51 95 0.0 0.0 0.00 0.00 0.00 1 1019.5
20260509040259 51 96 0.0 0.0 0.00 0.00 0.00 1 1019.5
20260509035800 51 96 0.0 0.0 0.00 0.00 0.00 1 1019.5
20260509035754 51 96 0.0 0.0 0.00 0.00 0.00 1 1019.5
20260509034800 51 96 0.0 0.0 0.00 0.00 0.00 1 1019.5
20260509034258 50 96 0.0 0.0 0.00 0.00 0.00 1 1019.5
20260509033800 51 96 0.0 0.0 0.00 0.00 0.00 1 1019.4
20260509033513 51 96 0.0 0.0 0.00 0.00 0.00 1 1019.4
20260509032747 51 96 0.0 0.0 0.00 0.00 0.00 1 1019.4
20260509032241 51 96 0.0 0.0 0.00 0.00 0.00 1 1019.5
20260509031736 51 96 0.0 0.0 0.00 0.00 0.00 1 1019.5
20260509031231 51 96 0.0 0.0 0.00 0.00 0.00 1 1019.6
20260509030724 51 95 0.0 1.0 0.00 0.00 0.00 1 1019.6
20260509030218 51 95 0.0 1.0 0.00 0.00 0.00 1 1019.6
20260509025710 51 94 0.0 0.0 0.00 0.00 0.00 1 1019.6
20260509025206 51 91 0.0 0.0 0.00 0.00 0.00 1 1019.6
20260509024659 51 91 0.0 2.0 0.00 0.00 0.00 1 1019.6
20260509024423 51 93 0.0 2.0 0.00 0.00 0.00 1 1019.6
20260509023656 52 96 0.0 2.0 0.00 0.00 0.00 1 1019.5
20260509023156 52 93 1.0 2.0 0.00 0.00 0.00 1 1019.5
20260509022657 52 86 0.0 2.0 0.00 0.00 0.00 1 1019.5
20260509022154 52 98 0.0 2.0 0.00 0.00 0.00 1 1019.5
20260509021655 51 98 0.0 2.0 0.00 0.00 0.00 1 1019.6
20260509021151 51 98 0.0 2.0 0.00 0.00 0.00 1 1019.6
20260509020647 52 85 0.0 2.0 0.00 0.00 0.00 1 1019.6
20260509020147 52 100 0.0 0.0 0.00 0.00 0.00 1 1019.7
20260509015648 52 99 0.0 2.0 0.00 0.00 0.00 1 1019.6
20260509015149 52 91 0.0 2.0 0.00 0.00 0.00 1 1019.7
20260509014644 52 103 0.0 1.0 0.00 0.00 0.00 1 1019.7
20260509014409 52 86 0.0 1.0 0.00 0.00 0.00 1 1019.7
20260509013643 52 96 0.0 0.0 0.00 0.00 0.00 1 1019.7
20260509013415 52 89 0.0 2.0 0.00 0.00 0.00 1 1019.7
20260509012906 52 77 0.0 2.0 0.00 0.00 0.00 1 1019.7
20260509012139 52 113 0.0 1.0 0.00 0.00 0.00 1 1019.7
20260509011855 52 104 0.0 1.0 0.00 0.00 0.00 1 1019.7
20260509011137 52 105 0.0 0.0 0.00 0.00 0.00 1 1019.7
20260509010640 52 94 0.0 0.0 0.00 0.00 0.00 1 1019.7
20260509010137 52 106 0.0 0.0 0.00 0.00 0.00 1 1019.7
20260509005626 52 105 0.0 0.0 0.00 0.00 0.00 1 1019.8
20260509005120 52 105 0.0 1.0 0.00 0.00 0.00 1 1019.8
20260509004614 52 110 0.0 1.0 0.00 0.00 0.00 1 1019.8
20260509004108 52 99 0.0 1.0 0.00 0.00 0.00 1 1019.8
20260509003601 52 108 0.0 0.0 0.00 0.00 0.00 1 1019.7
20260509003057 52 108 0.0 0.0 0.00 0.00 0.00 1 1019.8
20260509002810 53 109 0.0 0.0 0.00 0.00 0.00 1 1019.7
20260509002046 53 109 0.0 0.0 0.00 0.00 0.00 1 1019.7
20260509001537 53 108 0.0 0.0 0.00 0.00 0.00 1 1019.7
20260509001033 53 108 0.0 1.0 0.00 0.00 0.00 1 1019.7
20260509000800 53 108 0.0 1.0 0.00 0.00 0.00 1 1019.6
20260509000023 53 108 0.0 1.0 0.00 0.00 0.00 1 1019.6
20260508235517 53 108 0.0 0.0 0.00 0.00 0.00 1 1019.6
20260508235232 54 103 0.0 0.0 0.00 0.00 0.00 6 1019.6
20260508234725 54 103 0.0 0.0 0.00 0.00 0.00 10 1019.6
20260508234000 54 103 0.0 0.0 0.00 0.00 0.00 11 1019.6
20260508233719 55 103 0.0 0.0 0.00 0.00 0.00 14 1019.6
20260508232945 55 103 0.0 0.0 0.00 0.00 0.00 18 1019.5
20260508232707 55 101 0.0 0.0 0.00 0.00 0.00 20 1019.5
20260508231932 55 101 0.0 0.0 0.00 0.00 0.00 22 1019.5
20260508231426 56 93 0.0 0.0 0.00 0.00 0.00 23 1019.5
20260508230920 56 98 0.0 3.0 0.00 0.00 0.00 26 1019.5
20260508230414 56 56 0.0 3.0 0.00 0.00 0.00 26 1019.5
20260508225908 56 113 0.0 2.0 0.00 0.00 0.00 26 1019.5
20260508225402 56 110 0.0 0.0 0.00 0.00 0.00 26 1019.5
20260508224855 56 107 0.0 3.0 0.00 0.00 0.00 28 1019.5
20260508224625 57 94 0.0 3.0 0.00 0.00 0.00 32 1019.6
20260508223846 57 93 1.0 3.0 0.00 0.00 0.00 36 1019.6
20260508223339 57 98 0.0 3.0 0.00 0.00 0.00 38 1019.5
20260508222833 57 114 0.0 2.0 0.00 0.00 0.00 42 1019.6
20260508222327 57 114 0.0 2.0 0.00 0.00 0.00 44 1019.5
20260508221820 57 40 0.0 0.0 0.00 0.00 0.00 48 1019.4
20260508221314 57 40 0.0 0.0 0.00 0.00 0.00 50 1019.4
20260508220808 57 40 0.0 0.0 0.00 0.00 0.00 51 1019.4
20260508220320 57 40 0.0 0.0 0.00 0.00 0.00 51 1019.4
20260508215757 58 40 0.0 0.0 0.00 0.00 0.00 54 1019.4
20260508215252 58 40 0.0 0.0 0.00 0.00 0.00 54 1019.4
20260508215006 58 40 0.0 1.0 0.00 0.00 0.00 55 1019.4
20260508214239 58 40 0.0 1.0 0.00 0.00 0.00 56 1019.4
20260508213731 58 40 0.0 1.0 0.00 0.00 0.00 56 1019.5
20260508213227 58 91 0.0 0.0 0.00 0.00 0.00 56 1019.4
20260508212721 58 91 0.0 0.0 0.00 0.00 0.00 56 1019.4
20260508212214 58 102 0.0 2.0 0.00 0.00 0.00 56 1019.4
20260508211708 58 95 0.0 2.0 0.00 0.00 0.00 55 1019.5
20260508211202 59 100 0.0 2.0 0.00 0.00 0.00 55 1019.4
20260508210656 59 93 0.0 2.0 0.00 0.00 0.00 55 1019.4
20260508210149 59 88 0.0 2.0 0.00 0.00 0.00 56 1019.4
20260508205644 59 88 0.0 2.0 0.00 0.00 0.00 55 1019.4
20260508205139 59 110 0.0 0.0 0.00 0.00 0.00 55 1019.4
20260508204852 59 63 0.0 0.0 0.00 0.00 0.00 56 1019.3
20260508204348 59 61 0.0 2.0 0.00 0.00 0.00 56 1019.3
20260508203620 59 71 0.0 3.0 0.00 0.00 0.00 56 1019.4
20260508203340 60 30 0.0 3.0 0.00 0.00 0.00 57 1019.3
20260508202608 60 79 0.0 0.0 0.00 0.00 0.00 58 1019.3
20260508202102 60 76 0.0 0.0 0.00 0.00 0.00 58 1019.3
20260508201556 60 76 0.0 0.0 0.00 0.00 0.00 58 1019.4
20260508201051 60 79 0.0 0.0 0.00 0.00 0.00 58 1019.4
20260508200558 60 79 0.0 0.0 0.00 0.00 0.00 58 1019.3
20260508200545 60 79 0.0 0.0 0.00 0.00 0.00 58 1019.4
20260508195533 60 79 0.0 0.0 0.00 0.00 0.00 59 1019.3
20260508195027 60 97 0.0 0.0 0.00 0.00 0.00 58 1019.3
20260508194748 60 68 0.0 0.0 0.00 0.00 0.00 59 1019.2
20260508194017 60 78 0.0 0.0 0.00 0.00 0.00 58 1019.2
20260508193745 60 103 0.0 0.0 0.00 0.00 0.00 58 1019.2
20260508192959 61 103 0.0 0.0 0.00 0.00 0.00 58 1019.1
20260508192452 61 103 0.0 0.0 0.00 0.00 0.00 58 1019.0
20260508191948 61 103 0.0 0.0 0.00 0.00 0.00 58 1019.0
20260508191441 61 103 0.0 0.0 0.00 0.00 0.00 57 1018.9
20260508190935 61 103 0.0 0.0 0.00 0.00 0.00 58 1018.9
20260508190429 62 100 0.0 3.0 0.00 0.00 0.00 58 1018.8
20260508185923 62 101 0.0 3.0 0.00 0.00 0.00 57 1018.7
20260508185417 62 120 0.0 1.0 0.00 0.00 0.00 57 1018.7
20260508185139 62 77 0.0 1.0 0.00 0.00 0.00 56 1018.6
20260508184405 62 102 0.0 0.0 0.00 0.00 0.00 55 1018.6
20260508184123 63 103 0.0 0.0 0.00 0.00 0.00 54 1018.5
20260508183352 63 104 0.0 1.0 0.00 0.00 0.00 55 1018.5
20260508182846 63 104 0.0 1.0 0.00 0.00 0.00 53 1018.4
20260508182341 64 122 0.0 0.0 0.00 0.00 0.00 53 1018.4
20260508181850 64 133 0.0 0.0 0.00 0.00 0.00 53 1018.4
20260508181548 65 134 0.0 1.0 0.00 0.00 0.00 51 1018.3
20260508181044 65 116 0.0 1.0 0.00 0.00 0.00 52 1018.3
20260508180325 64 105 0.0 2.0 0.00 0.00 0.00 51 1018.3
20260508175821 64 109 0.0 2.0 0.00 0.00 0.00 52 1018.4
20260508175322 64 123 1.0 3.0 0.00 0.00 0.00 52 1018.3
20260508174821 64 114 1.0 3.0 0.00 0.00 0.00 52 1018.2
20260508174547 63 108 1.0 3.0 0.00 0.00 0.00 52 1018.2
20260508173822 63 117 0.0 2.0 0.00 0.00 0.00 53 1018.2
20260508173318 63 110 1.0 3.0 0.00 0.00 0.00 54 1018.2
20260508172818 63 115 1.0 3.0 0.00 0.00 0.00 53 1018.1
20260508172316 63 110 1.0 3.0 0.00 0.00 0.00 53 1018.1
20260508171814 62 102 1.0 3.0 0.00 0.00 0.00 50 1018.1
20260508171313 63 124 1.0 5.0 0.00 0.00 0.00 53 1018.1
20260508171047 63 121 1.0 5.0 0.00 0.00 0.00 53 1018.1
20260508170549 63 134 1.0 5.0 0.00 0.00 0.00 52 1018.1
20260508165818 63 65 1.0 5.0 0.00 0.00 0.00 52 1018.1
20260508165313 63 46 1.0 3.0 0.00 0.00 0.00 49 1018.1
20260508164817 63 115 1.0 3.0 0.00 0.00 0.00 53 1018.0
20260508164310 63 112 1.0 4.0 0.00 0.00 0.00 52 1018.0
20260508163808 63 91 1.0 4.0 0.00 0.00 0.00 53 1018.1
20260508163308 63 32 1.0 3.0 0.00 0.00 0.00 53 1018.1
20260508162807 63 36 1.0 3.0 0.00 0.00 0.00 53 1018.1
20260508162307 63 110 1.0 2.0 0.00 0.00 0.00 53 1018.1
20260508162026 63 107 1.0 4.0 0.00 0.00 0.00 52 1018.1
20260508161305 63 115 1.0 4.0 0.00 0.00 0.00 53 1018.1
20260508160804 63 118 1.0 5.0 0.00 0.00 0.00 53 1018.0
20260508160402 63 20 2.0 5.0 0.00 0.00 0.00 53 1018.0
20260508155305 64 110 2.0 5.0 0.00 0.00 0.00 52 1018.0
20260508154802 64 111 2.0 8.0 0.00 0.00 0.00 52 1017.9
20260508154259 64 314 2.0 8.0 0.00 0.00 0.00 49 1018.0
20260508153759 65 113 1.0 4.0 0.00 0.00 0.00 51 1018.0
20260508153301 65 99 2.0 9.0 0.00 0.00 0.00 51 1018.0
20260508152759 65 43 2.0 9.0 0.00 0.00 0.00 51 1018.0
20260508152300 65 112 2.0 6.0 0.00 0.00 0.00 52 1018.1
20260508151759 65 127 2.0 8.0 0.00 0.00 0.00 51 1018.1
20260508151259 65 233 2.0 8.0 0.00 0.00 0.00 50 1018.1
20260508150800 65 24 2.0 8.0 0.00 0.00 0.00 50 1018.1
20260508150259 65 18 2.0 8.0 0.00 0.00 0.00 48 1018.1
20260508145803 66 37 2.0 6.0 0.00 0.00 0.00 49 1018.1
20260508145300 66 229 2.0 6.0 0.00 0.00 0.00 49 1018.2
20260508144759 66 115 2.0 6.0 0.00 0.00 0.00 50 1018.1
20260508144300 66 129 2.0 6.0 0.00 0.00 0.00 51 1018.1
20260508144019 65 135 2.0 8.0 0.00 0.00 0.00 52 1018.2
20260508143301 65 32 2.0 8.0 0.00 0.00 0.00 51 1018.2
20260508142815 65 1 2.0 8.0 0.00 0.00 0.00 51 1018.2
20260508142300 65 167 3.0 7.0 0.00 0.00 0.00 53 1018.3
20260508141759 65 170 3.0 7.0 0.00 0.00 0.00 52 1018.3
20260508141301 65 130 3.0 7.0 0.00 0.00 0.00 52 1018.3
20260508140754 65 61 3.0 6.0 0.00 0.00 0.00 52 1018.4
20260508140249 65 115 3.0 7.0 0.00 0.00 0.00 53 1018.4
20260508135743 65 96 3.0 7.0 0.00 0.00 0.00 52 1018.5
20260508135237 65 59 2.0 12.0 0.00 0.00 0.00 53 1018.5
20260508134731 65 126 2.0 12.0 0.00 0.00 0.00 53 1018.5
20260508134225 65 75 2.0 8.0 0.00 0.00 0.00 55 1018.5
20260508133719 64 124 3.0 8.0 0.00 0.00 0.00 54 1018.5
20260508133213 64 144 4.0 8.0 0.00 0.00 0.00 55 1018.5
20260508132712 64 84 3.0 7.0 0.00 0.00 0.00 55 1018.5
20260508132210 64 101 3.0 8.0 0.00 0.00 0.00 55 1018.5
20260508132200 64 38 3.0 8.0 0.00 0.00 0.00 56 1018.5
20260508131459 64 345 3.0 9.0 0.00 0.00 0.00 55 1018.6
20260508130712 64 117 3.0 9.0 0.00 0.00 0.00 55 1018.6
20260508130704 64 112 3.0 9.0 0.00 0.00 0.00 56 1018.6
20260508125711 64 115 3.0 7.0 0.00 0.00 0.00 56 1018.6
20260508125212 64 79 3.0 8.0 0.00 0.00 0.00 56 1018.6
20260508124708 64 68 3.0 8.0 0.00 0.00 0.00 56 1018.6
20260508124211 64 117 4.0 12.0 0.00 0.00 0.00 56 1018.7
20260508123708 64 21 3.0 12.0 0.00 0.00 0.00 56 1018.7
20260508123207 64 98 3.0 8.0 0.00 0.00 0.00 57 1018.7
20260508122707 64 97 2.0 8.0 0.00 0.00 0.00 57 1018.7
20260508122208 64 111 2.0 6.0 0.00 0.00 0.00 57 1018.6
20260508121707 63 115 4.0 8.0 0.00 0.00 0.00 55 1018.6
20260508121426 63 56 4.0 8.0 0.00 0.00 0.00 57 1018.7
20260508120704 63 127 3.0 9.0 0.00 0.00 0.00 57 1018.6
20260508120644 63 68 3.0 9.0 0.00 0.00 0.00 55 1018.7
20260508115648 63 115 4.0 9.0 0.00 0.00 0.00 56 1018.7
20260508115402 62 115 3.0 9.0 0.00 0.00 0.00 55 1018.8
20260508114636 62 123 4.0 8.0 0.00 0.00 0.00 57 1018.7
20260508114130 62 90 4.0 9.0 0.00 0.00 0.00 56 1018.7
20260508113624 61 132 5.0 10.0 0.00 0.00 0.00 57 1018.8
20260508113119 62 108 4.0 10.0 0.00 0.00 0.00 56 1018.8
20260508112612 62 131 3.0 9.0 0.00 0.00 0.00 58 1018.8
20260508112107 62 85 4.0 9.0 0.00 0.00 0.00 57 1018.9
20260508111602 61 75 4.0 9.0 0.00 0.00 0.00 58 1018.9
20260508111056 61 98 4.0 10.0 0.00 0.00 0.00 58 1018.9
20260508110550 60 80 4.0 10.0 0.00 0.00 0.00 59 1018.9
20260508110057 61 125 4.0 9.0 0.00 0.00 0.00 58 1018.9
20260508105537 61 115 3.0 7.0 0.00 0.00 0.00 58 1018.9
20260508105031 61 45 3.0 8.0 0.00 0.00 0.00 59 1018.9
20260508104528 60 99 4.0 9.0 0.00 0.00 0.00 58 1019.1
20260508104019 60 111 3.0 9.0 0.00 0.00 0.00 59 1019.0
20260508103516 60 132 3.0 9.0 0.00 0.00 0.00 59 1019.0
20260508103236 60 112 4.0 9.0 0.00 0.00 0.00 58 1019.0
20260508102501 60 118 4.0 8.0 0.00 0.00 0.00 58 1019.0
20260508101958 60 45 3.0 9.0 0.00 0.00 0.00 58 1019.1
20260508101450 60 72 4.0 9.0 0.00 0.00 0.00 56 1019.1
20260508100944 59 121 5.0 9.0 0.00 0.00 0.00 57 1019.2
20260508100440 59 127 4.0 8.0 0.00 0.00 0.00 55 1019.2
20260508095930 59 96 4.0 8.0 0.00 0.00 0.00 55 1019.2
20260508095918 58 66 5.0 9.0 0.00 0.00 0.00 53 1019.2
20260508094918 58 135 5.0 9.0 0.00 0.00 0.00 54 1019.2
20260508094413 58 127 4.0 9.0 0.00 0.00 0.00 53 1019.2
20260508093909 58 115 3.0 8.0 0.00 0.00 0.00 53 1019.2
20260508093401 58 115 3.0 11.0 0.00 0.00 0.00 49 1019.3
20260508093119 58 51 4.0 11.0 0.00 0.00 0.00 50 1019.2
20260508092349 58 84 4.0 9.0 0.00 0.00 0.00 51 1019.2
20260508091843 58 86 4.0 9.0 0.00 0.00 0.00 49 1019.2
20260508091338 58 76 4.0 9.0 0.00 0.00 0.00 52 1019.2
20260508090831 58 100 4.0 11.0 0.00 0.00 0.00 48 1019.2
20260508090328 57 101 4.0 11.0 0.00 0.00 0.00 49 1019.2
20260508085821 57 91 4.0 11.0 0.00 0.00 0.00 47 1019.1
20260508085536 57 112 4.0 9.0 0.00 0.00 0.00 47 1019.2
20260508084818 57 86 3.0 9.0 0.00 0.00 0.00 45 1019.1
20260508084317 57 89 4.0 8.0 0.00 0.00 0.00 39 1019.1
20260508083829 56 90 4.0 9.0 0.00 0.00 0.00 38 1019.2
20260508083808 56 105 4.0 9.0 0.00 0.00 0.00 32 1019.2
20260508082900 55 112 3.0 7.0 0.00 0.00 0.00 24 1019.2
20260508082831 56 102 3.0 7.0 0.00 0.00 0.00 30 1019.1
20260508082045 55 108 3.0 7.0 0.00 0.00 0.00 18 1019.2
20260508081548 55 88 3.0 8.0 0.00 0.00 0.00 16 1019.2
20260508080818 55 112 4.0 8.0 0.00 0.00 0.00 16 1019.2
20260508080317 55 110 4.0 8.0 0.00 0.00 0.00 16 1019.2
20260508080034 55 108 4.0 9.0 0.00 0.00 0.00 18 1019.2
20260508075540 55 133 3.0 9.0 0.00 0.00 0.00 17 1019.2
20260508074819 55 99 4.0 9.0 0.00 0.00 0.00 14 1019.2
20260508074812 54 160 3.0 9.0 0.00 0.00 0.00 16 1019.2
20260508073818 54 113 3.0 8.0 0.00 0.00 0.00 11 1019.2
20260508073314 54 112 2.0 8.0 0.00 0.00 0.00 6 1019.3
20260508073034 53 115 3.0 8.0 0.00 0.00 0.00 4 1019.2
20260508072312 53 24 4.0 7.0 0.00 0.00 0.00 1 1019.2
20260508071813 53 113 4.0 7.0 0.00 0.00 0.00 1 1019.2
20260508071312 53 97 3.0 7.0 0.00 0.00 0.00 1 1019.1
20260508070816 52 88 2.0 6.0 0.00 0.00 0.00 1 1019.1
20260508070313 52 94 2.0 6.0 0.00 0.00 0.00 1 1019.1
20260508065812 52 116 2.0 6.0 0.00 0.00 0.00 1 1019.0
20260508065313 52 110 2.0 6.0 0.00 0.00 0.00 1 1019.0
20260508065032 52 84 2.0 5.0 0.00 0.00 0.00 1 1018.9
20260508064310 51 106 3.0 6.0 0.00 0.00 0.00 1 1018.9
20260508063809 51 96 3.0 7.0 0.00 0.00 0.00 1 1018.9
20260508063311 51 57 3.0 7.0 0.00 0.00 0.00 1 1018.9
20260508062812 51 102 3.0 7.0 0.00 0.00 0.00 1 1018.9
20260508062309 51 108 3.0 7.0 0.00 0.00 0.00 1 1018.8
20260508061810 51 109 2.0 6.0 0.00 0.00 0.00 1 1018.8
20260508061313 51 109 2.0 5.0 0.00 0.00 0.00 1 1018.8
20260508060806 51 103 2.0 7.0 0.00 0.00 0.00 1 1018.8
20260508060303 51 108 2.0 7.0 0.00 0.00 0.00 1 1018.8
20260508055800 51 109 2.0 6.0 0.00 0.00 0.00 1 1018.7
20260508055306 51 117 2.0 6.0 0.00 0.00 0.00 1 1018.7
20260508054802 51 57 2.0 5.0 0.00 0.00 0.00 1 1018.7
20260508054300 51 103 2.0 6.0 0.00 0.00 0.00 1 1018.6
20260508053800 51 113 2.0 6.0 0.00 0.00 0.00 1 1018.6
20260508053303 51 97 2.0 6.0 0.00 0.00 0.00 1 1018.6
20260508052800 51 112 3.0 6.0 0.00 0.00 0.00 1 1018.5
20260508052300 51 122 2.0 6.0 0.00 0.00 0.00 1 1018.5
20260508051801 51 143 2.0 5.0 0.00 0.00 0.00 1 1018.5